Weather History for Huntington, WV

Change the Weather History Date:

Sunday, October 21, 2012

  Actual Average Record
Temperature  
Mean Temperature 51 °F 55 °F  
Max Temperature 67 °F 67 °F 86 °F (1979)
Min Temperature 35 °F 44 °F 20 °F (1952)
Degree Days  
Heating Degree Days 14 10  
Month to date heating degree days 209 162  
Since 1 July heating degree days 279 220  
Cooling Degree Days 0 0  
Month to date cooling degree days 15 16  
Year to date cooling degree days 1320 1127  
Moisture  
Dew Point 40 °F    
Average Humidity 70    
Maximum Humidity 100    
Minimum Humidity 40    
Precipitation  
Precipitation 0.00 in 0.09 in 1.57 in (1983)
Month to date precipitation 0.57 1.84  
Year to date precipitation 32.50 34.87  
Snow  
Snow 0.00 in - - ()
Month to date snowfall 0.0  
Since 1 September snowfall 0.0  
Snow Depth 0.00 in    
Sea Level Pressure  
Sea Level Pressure 30.12 in    
Wind  
Wind Speed 2 mph (SE)    
Max Wind Speed 8 mph    
Max Gust Speed 14 mph    
Visibility 7 miles    
Events      
T = Trace of Precipitation, MM = Missing Value Source: NWS Daily Summary

Daily Weather History Graph

Daily Weather History Graph

Search for Another Location

Airport:

Trip Planner

Search our weather history database for the weather conditions in past years. The results will help you decide how hot, cold, wet, or windy it might be!

Date:

Astronomy

Oct. 21, 2012 Rise Set
Actual Time 7:45 AM EDT 6:43 PM EDT
Civil Twilight 7:18 AM EDT 7:10 PM EDT
Nautical Twilight 6:47 AM EDT 7:41 PM EDT
Astronomical Twilight 6:17 AM EDT 8:11 PM EDT
Moon 2:04 PM EDT (10/21) No Moon Set
Length of Visible Light 11h 51m
Length of Day
10h 57m
Waxing Crescent, 45% of the Moon is Illuminated
Oct 21
Waxing Crescent
Oct 21
First Quarter
Oct 29
Full
Nov 6
Last Quarter
Nov 13
New

Hourly Weather History & Observations

Time (EDT) Temp. Windchill Dew Point Humidity Pressure Visibility Wind Dir Wind Speed Gust Speed Precip Events Conditions
12:51 AM 45.0 °F 43.5 °F 41.0 °F 86% 30.03 in 10.0 mi SSW 3.5 mph - N/A   Clear
1:51 AM 42.1 °F - 39.0 °F 89% 30.04 in 8.0 mi Calm Calm - N/A   Clear
2:51 AM 39.9 °F - 37.9 °F 93% 30.05 in 5.0 mi Calm Calm - N/A   Clear
3:51 AM 39.0 °F 36.8 °F 37.9 °F 96% 30.07 in 5.0 mi SSW 3.5 mph - N/A   Clear
4:51 AM 37.9 °F 35.5 °F 37.0 °F 97% 30.09 in 2.5 mi East 3.5 mph - N/A   Clear
5:08 AM 37.4 °F - 37.4 °F 100% 30.08 in 4.0 mi Calm Calm - N/A   Clear
5:51 AM 37.9 °F - 36.0 °F 93% 30.11 in 5.0 mi Calm Calm - N/A   Clear
6:51 AM 36.0 °F - 35.1 °F 97% 30.13 in 3.0 mi Calm Calm - N/A   Clear
7:23 AM 35.6 °F - 35.6 °F 100% 30.14 in 5.0 mi Calm Calm - N/A   Scattered Clouds
7:51 AM 35.1 °F 32.2 °F 34.0 °F 96% 30.15 in 2.5 mi East 3.5 mph - N/A   Clear
8:19 AM 37.4 °F - 35.6 °F 93% 30.15 in 3.0 mi Calm Calm - N/A   Mostly Cloudy
8:51 AM 39.0 °F - 39.0 °F 100% 30.16 in 4.0 mi Calm Calm - N/A   Overcast
9:51 AM 44.1 °F - 42.1 °F 93% 30.18 in 8.0 mi Calm Calm - N/A   Clear
10:51 AM 52.0 °F - 44.1 °F 74% 30.18 in 10.0 mi SW 3.5 mph - N/A   Clear
11:51 AM 57.0 °F - 41.0 °F 55% 30.17 in 10.0 mi South 3.5 mph - N/A   Clear
12:51 PM 59.0 °F - 39.9 °F 49% 30.17 in 10.0 mi Calm Calm - N/A   Clear
1:51 PM 62.1 °F - 41.0 °F 46% 30.15 in 10.0 mi Variable 5.8 mph - N/A   Clear
2:51 PM 63.0 °F - 39.9 °F 43% 30.13 in 10.0 mi Variable 3.5 mph - N/A   Clear
3:51 PM 64.0 °F - 41.0 °F 43% 30.12 in 10.0 mi Calm Calm - N/A   Clear
4:51 PM 66.0 °F - 41.0 °F 40% 30.11 in 10.0 mi Calm Calm - N/A   Clear
5:51 PM 64.0 °F - 42.1 °F 45% 30.11 in 10.0 mi Calm Calm - N/A   Clear
6:51 PM 60.1 °F - 41.0 °F 49% 30.12 in 10.0 mi ESE 3.5 mph - N/A   Clear
7:51 PM 57.0 °F - 42.1 °F 57% 30.12 in 10.0 mi East 3.5 mph - N/A   Clear
8:51 PM 53.1 °F - 43.0 °F 69% 30.13 in 10.0 mi East 3.5 mph - N/A   Clear
9:51 PM 51.1 °F - 43.0 °F 74% 30.14 in 10.0 mi Calm Calm - N/A   Clear
10:51 PM 50.0 °F - 43.0 °F 77% 30.13 in 10.0 mi East 3.5 mph - N/A   Clear
11:51 PM 48.0 °F - 43.0 °F 83% 30.13 in 10.0 mi Calm Calm - N/A   Clear